Appleton, WI

10:46 PM CST on December 13, 2019 (GMT -0600)
Outagamie County Regional

Weather History for KATW - October, 2019

Change the Weather History Date:

Friday, October 25, 2019

  Actual Average Record
Temperature  
Mean Temperature 36 °F -  
Max Temperature 46 °F 53 °F 77 °F (1989)
Min Temperature 26 °F 38 °F 22 °F (1987)
Degree Days  
Heating Degree Days 29    
Moisture  
Dew Point 20 °F    
Average Humidity 58    
Maximum Humidity 80    
Minimum Humidity 25    
Precipitation  
Precipitation 0.00 in - - ()
Sea Level Pressure  
Sea Level Pressure 30.27 in    
Wind  
Wind Speed 4 mph ()    
Max Wind Speed 9 mph    
Max Gust Speed -    
Visibility 10.0 miles    
Events      
Averages and records for this station are not official NWS values.
T = Trace of Precipitation, MM = Missing Value Source: Averaged Metar Reports

Daily Weather History Graph

Daily Weather History Graph

Search for Another Location

Airport or City:

Astronomy

Oct. 25, 2019 Rise Set
Actual Time 7:21 AM CDT 5:54 PM CDT
Civil Twilight 6:51 AM CDT 6:23 PM CDT
Nautical Twilight 6:17 AM CDT 6:57 PM CDT
Astronomical Twilight 5:44 AM CDT 7:31 PM CDT
Moon 3:53 AM CDT (10/25) 5:04 PM CDT (10/25)
Length of Visible Light 11h 32m
Length of Day
10h 32m
Waning Crescent, 9% of the Moon is Illuminated
Oct 25
Waning Crescent
Oct 27
New
Nov 4
First Quarter
Nov 12
Full
Nov 19
Last Quarter

Hourly Weather History & Observations

Time (CDT) Temp. Windchill Dew Point Humidity Pressure Visibility Wind Dir Wind Speed Gust Speed Precip Events Conditions
12:15 AM 33.8 °F 30.8 °F 21.2 °F 60% 30.32 in 10.0 mi West 3.5 mph - N/A   Scattered Clouds
12:35 AM 33.8 °F 30.8 °F 21.2 °F 60% 30.32 in 10.0 mi West 3.5 mph - N/A   Clear
12:55 AM 32.0 °F 28.7 °F 21.2 °F 64% 30.32 in 10.0 mi WNW 3.5 mph - N/A   Clear
1:15 AM 32.0 °F 27.5 °F 21.2 °F 64% 30.32 in 10.0 mi NW 4.6 mph - N/A   Clear
1:35 AM 32.0 °F 27.5 °F 21.2 °F 64% 30.32 in 10.0 mi WNW 4.6 mph - N/A   Clear
1:55 AM 32.0 °F 26.4 °F 21.2 °F 64% 30.32 in 10.0 mi WNW 5.8 mph - N/A   Clear
2:15 AM 32.0 °F 26.4 °F 21.2 °F 64% 30.32 in 10.0 mi WNW 5.8 mph - N/A   Scattered Clouds
2:35 AM 30.2 °F 24.3 °F 19.4 °F 64% 30.32 in 10.0 mi WNW 5.8 mph - N/A   Scattered Clouds
2:55 AM 32.0 °F 26.4 °F 21.2 °F 64% 30.31 in 10.0 mi WNW 5.8 mph - N/A   Clear
3:15 AM 32.0 °F 26.4 °F 19.4 °F 60% 30.31 in 10.0 mi NW 5.8 mph - N/A   Clear
3:35 AM 30.2 °F 26.7 °F 21.2 °F 69% 30.31 in 10.0 mi WNW 3.5 mph - N/A   Mostly Cloudy
3:55 AM 30.2 °F 25.4 °F 21.2 °F 69% 30.31 in 10.0 mi West 4.6 mph - N/A   Scattered Clouds
4:15 AM 30.2 °F 26.7 °F 21.2 °F 69% 30.31 in 10.0 mi WSW 3.5 mph - N/A   Mostly Cloudy
4:35 AM 30.2 °F 25.4 °F 21.2 °F 69% 30.32 in 10.0 mi West 4.6 mph - N/A   Overcast
4:55 AM 30.2 °F 26.7 °F 23.0 °F 75% 30.32 in 10.0 mi WNW 3.5 mph - N/A   Overcast
5:15 AM 30.2 °F 26.7 °F 21.2 °F 69% 30.32 in 10.0 mi West 3.5 mph - N/A   Scattered Clouds
5:20 AM 28.4 °F 22.2 °F 21.2 °F 74% 30.32 in 10.0 mi West 5.8 mph - N/A   Mostly Cloudy
5:45 AM 26.6 °F 20.0 °F 21.2 °F 80% 30.32 in 10.0 mi West 5.8 mph - N/A   Scattered Clouds
6:45 AM 30.2 °F 25.4 °F 21.2 °F 69% 30.32 in 10.0 mi Variable 4.6 mph - N/A   Mostly Cloudy
7:45 AM 28.4 °F 22.2 °F 21.2 °F 74% 30.32 in 10.0 mi West 5.8 mph - N/A   Scattered Clouds
8:45 AM 33.8 °F 29.6 °F 24.8 °F 70% 30.33 in 10.0 mi Variable 4.6 mph - N/A   Scattered Clouds
9:45 AM 37.4 °F 33.8 °F 23.0 °F 56% 30.32 in 10.0 mi Variable 4.6 mph - N/A   Scattered Clouds
10:45 AM 41.0 °F 38.0 °F 19.4 °F 42% 30.31 in 10.0 mi Variable 4.6 mph - N/A   Scattered Clouds
11:25 AM 42.8 °F 37.5 °F 21.2 °F 42% 30.30 in 10.0 mi WSW 9.2 mph - N/A   Scattered Clouds
12:45 PM 42.8 °F 38.6 °F 19.4 °F 39% 30.28 in 10.0 mi SW 6.9 mph - N/A   Scattered Clouds
1:45 PM 44.6 °F 41.4 °F 19.4 °F 37% 30.25 in 10.0 mi West 5.8 mph - N/A   Clear
3:45 PM 46.4 °F 42.4 °F 12.2 °F 25% 30.19 in 10.0 mi West 8.1 mph - N/A   Clear
4:45 PM 46.4 °F 42.4 °F 15.8 °F 29% 30.19 in 10.0 mi SSW 8.1 mph - N/A   Clear
5:45 PM 41.0 °F 37.1 °F 19.4 °F 42% 30.19 in 10.0 mi SSW 5.8 mph - N/A   Clear
6:45 PM 37.4 °F 32.8 °F 19.4 °F 48% 30.18 in 10.0 mi Variable 5.8 mph - N/A   Clear
7:45 PM 35.6 °F 30.7 °F 19.4 °F 52% 30.17 in 10.0 mi Variable 5.8 mph - N/A   Clear
8:45 PM 35.6 °F 31.7 °F 19.4 °F 52% 30.17 in 10.0 mi Variable 4.6 mph - N/A   Clear
9:45 PM 33.8 °F 29.6 °F 19.4 °F 56% 30.17 in 10.0 mi Variable 4.6 mph - N/A   Clear
10:45 PM 35.6 °F 31.7 °F 19.4 °F 52% 30.16 in 10.0 mi Variable 4.6 mph - N/A   Clear
10:55 PM 33.8 °F 28.6 °F 21.2 °F 60% 30.16 in 10.0 mi SSW 5.8 mph - N/A   Clear
11:15 PM 35.6 °F 30.7 °F 21.2 °F 56% 30.15 in 10.0 mi SW 5.8 mph - N/A   Clear
11:35 PM 33.8 °F 28.6 °F 21.2 °F 60% 30.15 in 10.0 mi SSW 5.8 mph - N/A   Clear
11:55 PM 33.8 °F 29.6 °F 21.2 °F 60% 30.14 in 10.0 mi SSW 4.6 mph - N/A   Clear